DW5582 Weather Reports


time (UTC)temp
C
wind
direction
speed
KPH
gust
KPH
rain 1hr
cm
rain 24hr
cm
rain mn
cm
humidity
%
barometer
mb
20260506163027 17 46 1.6 12.9 0.00 0.00 0.00 47 1013.3
20260506161536 17 55 1.6 8.0 0.00 0.00 0.00 46 1013.3
20260506160026 17 338 4.8 12.9 0.00 0.00 0.00 46 1013.3
20260506154529 17 44 1.6 9.7 0.00 0.00 0.00 46 1013.4
20260506153026 18 17 8.0 17.7 0.00 0.00 0.00 44 1013.4
20260506151522 17 38 1.6 14.5 0.00 0.00 0.00 48 1013.5
20260506150030 17 71 3.2 16.1 0.00 0.00 0.00 47 1013.6
20260506144529 17 30 3.2 11.3 0.00 0.00 0.00 46 1013.7
20260506143029 16 24 0.0 8.0 0.00 0.00 0.00 49 1013.7
20260506141528 17 28 0.0 12.9 0.00 0.00 0.00 44 1013.8
20260506140026 17 108 1.6 11.3 0.00 0.00 0.00 46 1013.8
20260506134520 16 360 3.2 14.5 0.00 0.00 0.00 52 1013.8
20260506133015 16 86 1.6 16.1 0.00 0.00 0.00 52 1014.0
20260506131525 17 347 3.2 16.1 0.00 0.00 0.00 49 1013.9
20260506130024 16 29 0.0 12.9 0.00 0.00 0.00 50 1014.0
20260506124526 16 31 1.6 9.7 0.00 0.00 0.00 52 1014.0
20260506123014 15 78 4.8 11.3 0.00 0.00 0.00 53 1014.0
20260506121518 16 346 8.0 16.1 0.00 0.00 0.00 51 1014.1
20260506120024 16 350 3.2 12.9 0.00 0.00 0.00 54 1014.1
20260506114534 15 47 1.6 17.7 0.00 0.00 0.00 53 1014.2
20260506113010 15 47 3.2 16.1 0.00 0.00 0.00 50 1014.2
20260506111516 15 64 6.4 16.1 0.00 0.00 0.00 52 1014.3
20260506110020 15 26 6.4 19.3 0.00 0.00 0.00 53 1014.3
20260506104523 15 98 4.8 17.7 0.00 0.00 0.00 57 1014.3
20260506103029 14 90 4.8 14.5 0.00 0.00 0.00 59 1014.2
20260506101511 13 5 4.8 16.1 0.00 0.00 0.00 61 1014.2
20260506100030 12 61 4.8 17.7 0.00 0.00 0.00 63 1014.3
20260506094521 12 75 6.4 20.9 0.00 0.00 0.00 64 1014.5
20260506093023 11 104 4.8 16.1 0.00 0.00 0.00 66 1014.3
20260506091526 11 12 6.4 16.1 0.00 0.00 0.00 67 1014.5
20260506090013 11 34 6.4 20.9 0.00 0.00 0.00 67 1014.4
20260506084522 11 20 1.6 17.7 0.00 0.00 0.00 70 1014.5
20260506083023 11 46 3.2 19.3 0.00 0.00 0.00 70 1014.6
20260506081531 10 61 1.6 16.1 0.00 0.00 0.00 75 1014.4
20260506073004 8 66 8.0 16.1 0.00 0.00 0.00 76 1014.5
20260506071508 8 74 3.2 16.1 0.00 0.00 0.00 78 1014.4
20260506061504 8 78 4.8 19.3 0.00 0.00 0.00 82 1013.9
20260506044512 8 76 0.0 4.8 0.00 0.00 0.00 81 1013.7
20260506043014 8 76 0.0 16.1 0.00 0.00 0.00 81 1013.5
20260506041517 8 51 0.0 9.7 0.00 0.00 0.00 81 1013.5
20260506040026 8 72 1.6 11.3 0.00 0.00 0.00 81 1013.5
20260506034508 8 67 1.6 14.5 0.00 0.00 0.00 82 1013.4
20260506033015 9 13 6.4 16.1 0.00 0.00 0.00 83 1013.5
20260506031525 9 47 3.2 8.0 0.00 0.00 0.00 83 1013.5
20260506030019 9 43 0.0 4.8 0.00 0.00 0.00 83 1013.6
20260506024535 9 67 0.0 0.0 0.00 0.00 0.00 83 1013.6
20260506023008 10 67 0.0 3.2 0.00 0.00 0.00 82 1013.5
20260506021514 10 67 0.0 11.3 0.00 0.00 0.00 82 1013.6
20260506020016 10 45 0.0 14.5 0.00 0.00 0.00 82 1013.5
20260506014519 10 40 0.0 4.8 0.00 0.00 0.00 82 1013.5
20260506013029 10 40 0.0 3.2 0.00 0.00 0.00 81 1013.6
20260506011511 10 40 0.0 4.8 0.00 0.00 0.00 80 1013.7
20260506010017 10 40 0.0 0.0 0.00 0.00 0.00 80 1013.7
20260506004516 10 40 0.0 0.0 0.00 0.00 0.00 79 1013.7
20260506003022 10 40 0.0 1.6 0.00 0.00 0.00 79 1013.9
20260506001527 10 40 0.0 3.2 0.00 0.00 0.00 78 1013.8
20260506000011 10 40 1.6 12.9 0.00 0.00 0.00 78 1013.7
20260505234533 10 28 0.0 9.7 0.00 0.00 0.00 78 1013.7
20260505233021 10 61 1.6 9.7 0.00 0.00 0.00 77 1013.8
20260505231526 10 360 0.0 8.0 0.00 0.00 0.00 77 1013.8
20260505230048 10 360 0.0 9.7 0.00 0.00 0.00 77 1013.9
20260505224515 10 360 0.0 6.4 0.00 0.00 0.00 77 1013.9
20260505223023 10 360 0.0 0.0 0.00 0.00 0.00 76 1014.0
20260505221522 10 360 0.0 3.2 0.00 0.00 0.00 76 1013.9
20260505220026 10 360 0.0 4.8 0.00 0.00 0.00 76 1013.9
20260505214529 10 360 1.6 4.8 0.00 0.00 0.00 76 1013.9
20260505213016 10 360 0.0 0.0 0.00 0.00 0.00 76 1013.9
20260505211526 10 360 0.0 3.2 0.00 0.00 0.00 75 1013.8
20260505210029 10 360 0.0 6.4 0.00 0.00 0.00 75 1013.9
20260505204528 10 360 0.0 4.8 0.00 0.00 0.00 73 1013.9
20260505203026 11 360 0.0 6.4 0.00 0.00 0.00 72 1013.9
20260505201515 11 360 0.0 6.4 0.00 0.00 0.00 71 1013.7
20260505200022 11 360 0.0 4.8 0.00 0.00 0.00 70 1013.6
20260505194528 12 360 1.6 8.0 0.00 0.00 0.00 69 1013.4
20260505193027 12 5 3.2 11.3 0.00 0.00 0.00 67 1013.1
20260505191528 13 19 1.6 12.9 0.00 0.00 0.00 64 1012.9
20260505190017 13 36 3.2 14.5 0.00 0.00 0.00 62 1012.9
20260505184525 14 30 4.8 12.9 0.00 0.00 0.00 62 1012.8
20260505183026 15 18 3.2 17.7 0.00 0.00 0.00 60 1012.9
20260505181533 15 340 3.2 17.7 0.00 0.00 0.00 60 1012.8
20260505180039 15 54 3.2 19.3 0.00 0.00 0.00 60 1012.8
20260505174518 15 5 11.3 19.3 0.00 0.00 0.00 60 1012.8
20260505173025 15 346 1.6 16.1 0.00 0.00 0.00 60 1012.9
20260505171527 15 24 6.4 16.1 0.00 0.00 0.00 59 1012.9
20260505170030 16 346 9.7 19.3 0.00 0.00 0.00 60 1012.9
20260505164526 16 327 12.9 20.9 0.00 0.00 0.00 58 1012.8